THOR ABLESTAR DEB, 38521

Orbit data source: Space-Track

THOR ABLESTAR DEB, 38521 is space debris in LEO originally from a launch on Sat, 28 Sep 1963 UTC launched from the Air Force Western Test Range (AFWTR). Debris objects in space refer to the collection of defunct objects orbiting the Earth. Examples of debris include non-operational satellites, rocket bodies, and fragments generated from explosions, collisions, or faulty payload assembly.

Loading next visibility...
Identifier
38521, 1963-038Q
Orbit
LEO
Country
Flag of USUS
Related business
Manufacturer
Unknown
Mission
Spacecraft
Bus & Motor
Unknown
Mass
Unknown
Launch date (UTC)
1963-09-28 (63 years ago)
Launch vehicle
Unknown
Launch site
Air Force Western Test Range (AFWTR)
Object type
Payload
Rocket body
Debris
Shape & HBR
Unknown shape, 0.1 m
Radar Cross Section
Small (<0.1 m²)

Expand to show TLE details & history
Last TLE update: 1 week ago

TLE from 1 week ago
0 THOR ABLESTAR DEB
1 38521U 63038Q   26201.14625295  .00000075  00000-0  11098-3 0  9998
2 38521  89.9675 332.9564 0039002 250.0926 233.8659 13.45435053639934
Epoch: 2026-07-20T03:30Z
TLE epoch observation values (Epoch: 2026-07-20T03:30:36.254Z)
Latitude
56.49406°
Longitude
162.32201°
Altitude
1,115.867 km
Speed
7.291 km/s
True Right ascension
10h 11m 37s
True Declination
56° 20' 35"
Sunlit
Object was in daylight at epoch
Visualization orbit readout
Latitude
Unknown
Longitude
Unknown
Altitude
Unknown
Speed
Unknown
Apparent Right ascension
Unknown
Apparent Declination
Unknown
Sunlit
N/A
Visualization observer readout
Local Sidereal Time
20:30:23
Azimuth
Unknown
Elevation
Unknown
Doppler factor
Unknown
Orbital elements
Apogee altitude
1,115.27 km
Perigee altitude
1,057.046 km
Semi-major axis
7,464.295 km
Eccentricity
0.0039
Inclination
89.9675°
RAAN
332.9564°
Arg. of periapsis
250.0926°
True anomaly
233.50598°
Mean anomaly
233.8659°
Eccentric anomaly
233.68584°
Mean motion
3.36558 °/min
Orbital period
106.97 mins
BSTAR
0.00011098
Loading maneuver chart data...
Computing Atmospheric mass density...

Documentation

Showing up to 5 results
|